星链-11523 (STARLINK-11523)

导读

STARLINK-11523是美国SpaceX星链网络项目中的一颗卫星,于2025年1月10日发射升空。星链项目旨在构建全球卫星互联网星座,为全球各地尤其是偏远地区提供高速互联网接入服务。该卫星加入后,将进一步扩充星链星座的在轨规模,提升全球网络覆盖能力与服务稳定性,推动卫星互联网的普及应用。

基本信息
目录编号:
62565
目录名称:
STARLINK-11523
国际标识:
2025-006M
轨道中心:
EARTH
卫星名称:
星链-11523
卫星全名:
星链-11523 (STARLINK-11523)
卫星状态:
在轨 (已飞行603 天)
发射日期:
2025-01-10 UTC
国别 :
美国 (US)
星等 :
--
轨道信息
数据来源 国际轨道数据
星历时间: 2026-09-04T12:37:00+0800
1天前
查看轨道信息
半长轴: 6734.275km
偏心率: 0.0001839
轨道倾角: 43.000°
近地点辐角 251.502°
升交点赤经 144.169°
平近点角 108.564°
近地点: 354.899km
远地点: 357.377km
周期: 91.663分钟
每日圈数: 15.709651
详细信息
固有亮度:
5
最大亮度:
2.5
卫星平台:
Starlink V1.0
覆盖范围:
全球
运营商:
太空探索技术公司
运营商所在国:
美国
制造商(研发单位):
太空探索技术公司
制造商所在国:
美国
使用方式:
暂无
卫星简介
Starlink 计划是 SpaceX 推出的全球卫星互联网项目,通过发射低轨道卫星,为全球尤其是偏远地区提供高速、低延迟的互联网服务。自 2019 年起,Starlink 已部署数千颗卫星,旨在缩小全球数字鸿沟,推动互联网普及。该项目还为军事、航空等行业提供通信支持,带来广泛经济效益。
2D轨道图
3D轨道图
轨道高度分析图
轨道倾角分析图
轨道综合分析图
查看轨道综合分析图
交会数据列表
事件ID 空间交会对象 最接近时刻(TCA) 交会距离 交会风险概率(CRP) 交会风险指数(CRI) 操作
CDM_260907-142506-256506-263621
2026-09-07T
14:25:51+0000
1.944 km
极远距离
2.96968E-6 低风险 0.44